Showing default

MEASAT 3D, 52904

Orbit data source: Space-Track

MEASAT 3D, 52904 is a payload satellite owned by Measat (MY) in GEO that was launched on Wed, 22 Jun 2022 UTC via an ARIANE 5ECA+ launch vehicle from the French Guiana (FRGUI). Payload-class satellites include a variety of spacecraft equipped with specific instruments for various scientific and technological missions. These include communications satellites like Starlink; space stations such as the ISS; scientific satellites like the Hubble; Earth observation satellites from companies like Planet Labs, Umbra, and HawkEye 360; GPS; miniature CubeSats for education and research; and military/defense satellites.

Not visible in the next 10 days
Identifier
52904, 2022-067B
Orbit
GEO
Country
Flag of MYMY / MALA
Related business
Manufacturer
Airbus/Toulouse
Mission
Operational Commercial Communications
Bus & Motor
EUROSTAR 3000, R-4D?
Mass
5,648 kg wet, ~3,000 kg dry
Launch date (UTC)
Icon of a cake. It is the launch day of the satellite!2022-06-22 (4 years ago)
Launch vehicle
ARIANE 5ECA+
Launch site
French Guiana (FRGUI)
Object type
Payload
Rocket body
Debris
Shape & HBR
Box + 2 Pan, 17.2 m
Radar Cross Section
53.724 m², Large (>1 m²)

Expand to show TLE details & history
Last TLE update: 2 days ago

TLE from 2 days ago
0 MEASAT 3D
1 52904U 22067B   26171.41013873 -.00000246  00000-0  00000+0 0  9993
2 52904   0.0265 352.1472 0001345  25.8731 129.7490  1.00271559 14689
Epoch: 2026-06-20T09:50Z
TLE epoch observation values (Epoch: 2026-06-20T09:50:35.986Z)
Latitude
0.02075°
Longitude
91.51822°
Altitude
35,789.752 km
Speed
3.074 km/s
True Right ascension
09h 51m 10s
True Declination
0° 01' 15"
Sunlit
Object was in daylight at epoch
Visualization orbit readout
Latitude
Unknown
Longitude
Unknown
Altitude
Unknown
Speed
Unknown
Apparent Right ascension
Unknown
Apparent Declination
Unknown
Sunlit
N/A
Visualization observer readout
Local Sidereal Time
00:34:18
Azimuth
Unknown
Elevation
Unknown
Doppler factor
Unknown
Orbital elements
Apogee altitude
35,793.4 km
Perigee altitude
35,782.057 km
Semi-major axis
42,165.866 km
Eccentricity
0.00013
Inclination
0.0265°
RAAN
352.1472°
Arg. of periapsis
25.8731°
True anomaly
129.76085°
Mean anomaly
129.749°
Eccentric anomaly
129.75492°
Mean motion
0.25067 °/min
Orbital period
1,436.15 mins
BSTAR
0
Loading maneuver chart data...
Computing Atmospheric mass density...
Loading historical data...
Loading historical data...
Loading historical data...
Loading historical data...
Loading historical data...
Loading historical data...
Loading historical data...
Other satellites on launch #67 in the year 2022 (2022-06-22 UTC)

Documentation

Showing up to 5 results
|